CAPE
89 108 92 106 98 85 63 23 0 0 0 0 0 0 0 14 7 1 0 0 0 0 0 0 0 0 0 0 0 0 0 0 0 0 0 0 0 0 0 0 0 0 0 0 0
118 148 101 112 117 113 101 80 42 5 0 0 0 0 0 16 1 3 0 0 0 0 0 0 0 0 0 0 0 0 0 0 0 0 0 0 0 0 0 0 0 0 0 0 0
132 152 109 106 131 120 117 101 92 68 30 9 0 0 14 33 0 0 0 0 0 0 0 0 0 0 0 0 0 0 0 0 0 0 0 0 0 0 0 0 0 0 0 0 0
110 137 122 118 130 129 118 115 113 112 67 26 0 0 28 34 0 0 1 4 0 0 0 0 0 0 0 0 0 0 0 0 0 0 0 0 0 0 0 0 0 0 0 0 0
89 104 117 101 132 145 135 112 118 120 112 80 24 28 52 28 0 0 8 6 0 0 0 0 0 0 0 0 0 0 0 0 0 0 0 0 0 0 0 0 0 0 0 0 0
83 67 102 129 163 135 156 121 117 129 140 111 104 72 45 0 0 0 23 15 0 0 0 0 0 0 0 0 0 0 0 0 0 0 0 0 0 0 0 0 0 0 0 0 0
60 94 93 112 159 194 186 179 99 139 153 142 115 42 14 0 0 0 23 30 4 8 0 5 0 0 0 0 0 0 0 0 0 0 0 0 0 0 0 0 0 0 0 0 0
43 40 85 121 136 181 229 230 137 120 186 180 109 37 1 0 0 0 11 80 53 21 17 28 2 0 1 0 0 0 0 0 0 0 0 0 0 0 0 0 0 0 0 0 0
69 50 74 71 109 162 230 250 159 181 206 102 1 0 0 0 0 0 0 55 83 35 20 38 39 29 17 11 0 0 0 0 0 0 0 0 0 0 0 0 0 0 0 0 0
115 117 74 104 91 129 159 182 196 196 36 29 23 9 0 0 0 0 0 54 41 79 44 20 36 16 25 3 0 0 0 0 0 0 0 0 0 0 0 0 0 0 0 0 0
117 57 67 95 135 157 139 47 72 108 52 13 3 1 0 0 0 0 0 42 56 53 22 43 11 0 0 0 0 0 0 0 0 0 0 0 0 0 0 0 0 0 0 0 0
166 118 69 104 117 176 25 7 1 1 17 2 20 7 13 0 0 0 41 50 54 31 35 16 0 3 5 4 3 0 0 0 0 0 0 0 0 0 0 0 0 0 0 0 0
146 146 105 38 106 115 0 0 19 62 48 13 9 7 2 0 0 0 3 44 26 19 16 0 0 2 3 0 0 0 0 0 0 0 0 0 0 0 0 0 0 0 0 0 0
153 151 116 14 15 8 3 0 20 43 33 24 16 3 1 9 0 0 0 14 36 0 16 0 0 0 0 0 0 0 0 0 0 0 0 0 0 0 0 0 0 0 0 0 0
234 200 136 14 11 10 0 0 43 66 0 5 11 12 0 0 0 0 0 49 1 0 0 0 0 0 0 0 0 0 0 0 0 0 0 0 0 0 0 0 0 0 0 0 0
280 245 128 75 0 0 0 4 34 2 0 6 10 4 0 4 0 4 33 44 17 21 5 0 0 0 0 1 5 5 0 0 0 0 0 0 0 0 0 0 0 0 0 0 0
322 243 139 6 8 0 0 39 60 16 0 1 2 14 0 0 0 30 0 0 0 0 0 0 0 0 0 0 9 2 0 0 0 0 0 0 0 0 0 0 0 0 0 0 0
297 283 132 46 0 0 16 56 27 12 0 3 5 4 1 7 0 3 0 0 0 0 0 0 0 0 0 0 0 0 0 0 0 0 0 0 0 0 0 0 0 0 0 0 0
302 53 14 2 49 0 1 6 2 1 0 0 15 0 5 17 3 9 0 0 0 0 0 0 0 0 0 0 0 0 0 2 0 0 0 0 0 0 0 0 0 0 0 0 0
25 15 3 10 11 0 15 24 3 1 1 0 0 5 0 1 2 0 0 0 0 0 0 0 0 0 0 3 21 0 0 0 0 0 0 0 0 0 0 0 0 0 0 0 0
0 1 0 18 38 8 9 1 0 0 13 4 0 2 1 9 0 0 3 0 0 0 0 0 0 0 0 0 0 0 0 0 0 0 0 0 0 0 0 0 0 0 0 0 0
0 0 0 5 0 0 0 13 3 0 5 24 21 0 0 0 1 0 0 0 0 0 0 0 2 0 0 0 0 0 0 0 0 0 0 0 0 0 0 0 0 0 0 0 0
0 0 23 23 0 0 0 0 0 1 0 8 27 7 0 0 1 3 0 0 0 0 0 0 7 0 0 0 1 7 1 0 0 0 0 0 0 0 0 0 0 0 0 0 0
0 0 0 22 0 0 0 0 0 0 1 22 13 29 3 6 15 7 0 0 0 3 12 29 22 0 0 0 0 0 0 0 5 1 0 0 0 0 0 0 0 0 0 0 0
0 0 0 0 4 0 0 8 0 1 11 22 12 17 10 0 5 1 0 0 0 0 23 41 7 1 0 0 0 0 0 9 47 0 0 0 0 0 0 0 0 0 0 0 0
0 0 0 0 0 0 16 0 1 14 0 0 1 5 12 16 0 0 0 0 1 0 33 18 13 15 0 0 0 0 0 0 0 5 13 0 0 0 0 0 0 0 0 0 0
0 3 0 0 0 1 0 20 2 32 0 5 0 14 16 11 12 18 24 31 28 13 27 34 10 7 0 0 0 3 0 0 0 0 0 0 0 0 0 0 0 0 0 0 0
CIN
-8 -4 -1 -1 0 -1 -1 -2 0 0 0 0 0 0 0 -3 -20 0 0 0 0 0 0 0 0 0 0 0 0 0 0 0 0 0 0 0 0 0 0 0 0 0 0 0 0
-3 -2 -4 -2 -2 0 0 0 0 -1 0 0 0 0 0 -5 -4 -5 0 0 0 0 0 0 0 0 0 0 0 0 0 0 0 0 0 0 0 0 0 0 0 0 0 0 0
0 -2 -3 -2 -3 -1 0 0 0 0 -1 -1 0 0 -6 -8 0 0 0 0 0 0 0 0 0 0 0 0 0 0 0 0 0 0 0 0 0 0 0 0 0 0 0 0 0
0 0 -2 -2 -1 -2 -2 -1 -1 -1 0 0 0 0 -19 -6 0 0 -3 -17 0 0 0 0 0 0 0 0 0 0 0 0 0 0 0 0 0 0 0 0 0 0 0 0 0
-48 -34 -1 -3 -2 -2 -4 -3 -2 -1 0 0 -1 -4 -5 0 0 0 -33 -34 0 0 0 0 0 0 0 0 0 0 0 0 0 0 0 0 0 0 0 0 0 0 0 0 0
-47 -9 -37 -1 -1 -2 -3 -6 -4 -3 -1 -1 -1 -2 -2 0 0 0 -11 -19 0 0 0 0 0 0 0 0 0 0 0 0 0 0 0 0 0 0 0 0 0 0 0 0 0
-4 -41 -33 -3 -3 -1 -3 -6 -10 -6 -2 0 -1 0 0 0 0 0 -8 -14 -4 -1 0 -1 0 0 0 0 0 0 0 0 0 0 0 0 0 0 0 0 0 0 0 0 0
-7 -16 -39 -9 -11 -2 -2 -5 -16 -11 -4 -2 -2 -1 0 0 0 0 -3 -7 -5 -2 -5 -5 -1 0 -1 0 0 0 0 0 0 0 0 0 0 0 0 0 0 0 0 0 0
-4 -19 -17 -13 -4 -5 -9 -7 -23 -12 -3 -5 0 0 0 0 0 0 0 -10 -8 -6 -9 -3 -2 -2 -1 -1 0 0 0 0 0 0 0 0 0 0 0 0 0 0 0 0 0
-3 -4 -22 -12 -12 -8 -12 -18 -23 -6 -1 0 0 0 0 0 0 0 0 -16 -13 -3 -4 -4 -4 -1 0 0 0 0 0 0 0 0 0 0 0 0 0 0 0 0 0 0 0
0 -9 -14 -14 -7 -5 -9 -19 -6 0 0 -1 -1 -1 0 0 0 0 0 -2 -7 -2 0 -5 0 0 0 0 0 0 0 0 0 0 0 0 0 0 0 0 0 0 0 0 0
0 -1 -5 -7 -4 -4 -8 -1 -1 -2 0 0 -1 0 -2 -1 0 0 -11 -1 -1 0 0 -1 0 -2 -7 -3 -1 0 0 0 0 0 0 0 0 0 0 0 0 0 0 0 0
0 0 0 -2 -3 -5 0 0 -11 -5 -17 -20 -1 0 -6 0 0 0 -5 -1 0 0 0 0 0 -1 0 -1 0 0 0 0 0 0 0 0 0 0 0 0 0 0 0 0 0
-2 0 -1 -24 -34 -1 -4 -29 -13 -16 0 -10 -8 0 -1 -2 0 0 0 -3 0 0 0 0 0 0 0 0 0 0 0 0 0 0 0 0 0 0 0 0 0 0 0 0 0
0 0 -1 -13 -11 -25 0 0 -6 -1 0 -26 -1 -1 0 0 0 0 0 -2 0 0 0 0 0 0 0 0 0 0 -1 0 0 0 0 0 0 0 0 0 0 0 0 0 0
0 -2 -16 -3 0 0 0 -18 -53 -1 0 0 0 0 0 0 0 -10 -16 -3 -3 -1 -1 0 -1 0 0 -2 -6 -3 0 0 0 0 0 0 0 0 0 0 0 0 0 0 0
0 -2 -6 -7 -2 0 0 -6 -2 -1 0 -2 0 0 0 0 0 -26 0 0 0 0 0 0 0 0 0 0 -3 0 0 0 0 0 0 0 0 0 0 0 0 0 0 0 0
0 -2 -3 -5 0 0 -5 -4 -1 -10 0 0 -3 0 0 0 0 -2 0 0 0 0 0 0 0 0 0 0 0 0 0 0 0 0 0 0 0 0 0 0 0 0 0 0 0
-1 -2 -5 -24 -12 -31 -7 -12 -2 -20 0 0 0 0 0 -1 -6 0 0 0 0 0 0 0 0 0 0 0 0 0 0 -1 0 0 0 0 0 0 0 0 0 0 0 0 0
-3 -1 0 -5 -12 0 -6 -5 -6 -7 -10 0 0 -1 0 0 0 0 0 0 0 0 0 0 0 0 0 -1 0 -1 0 0 0 0 0 0 0 0 0 0 0 0 0 0 0
0 0 0 -9 -9 -4 -5 -3 0 -21 -25 -15 0 -10 -3 -1 0 0 -1 0 0 0 0 0 0 0 0 0 0 0 0 0 0 0 0 0 0 0 0 0 0 0 0 0 0
0 0 0 -7 0 0 0 -4 -16 0 -11 -17 -18 -20 0 -10 -2 0 0 0 0 0 0 0 0 0 0 0 0 0 0 0 0 0 0 0 0 0 0 0 0 0 0 0 0
0 0 -2 -8 0 0 0 0 0 -1 -16 -21 -23 -25 0 -2 -10 -1 0 0 0 0 0 0 -2 0 0 0 -10 0 -1 0 -1 0 0 0 0 0 0 0 0 0 0 0 0
0 0 0 -2 0 0 0 0 0 0 -3 -3 -19 -30 -43 -38 -17 -15 0 0 0 -49 -24 -6 -7 0 0 0 0 0 0 0 -7 0 0 0 0 0 0 0 0 0 0 0 0
0 0 0 0 -4 0 0 -7 -1 0 -18 -32 -35 -47 -6 -25 -17 -20 0 0 0 0 -12 -6 -3 -5 0 0 0 0 0 -21 -12 0 0 0 0 0 0 0 0 0 0 0 0
0 0 0 0 0 -6 -9 0 -3 -12 0 0 -16 -52 -40 -71 -2 0 -2 0 -2 0 -3 -6 -1 -1 0 0 0 0 0 0 0 -45 -28 0 0 0 0 0 0 0 0 0 0
0 -34 0 0 0 -2 0 -41 -3 -6 -11 -30 0 -15 -18 -39 -77 -47 -63 -53 -53 -54 -36 -6 -10 -2 0 0 0 0 0 0 0 0 0 0 0 0 0 0 0 0 0 0 0
Wind_Speed
nan 44 nan 43 nan nan nan nan nan nan nan nan nan nan nan nan nan nan nan nan nan nan nan nan nan nan nan nan nan nan nan nan nan nan nan nan nan nan nan nan nan nan nan nan nan
58 62 45 44 47 45 45 nan nan nan nan nan nan nan nan nan nan nan nan nan nan nan nan nan nan nan nan nan nan nan nan nan nan nan nan nan nan nan nan nan nan nan nan nan nan
52 61 60 49 47 47 46 46 nan nan nan nan nan nan nan nan nan nan nan nan nan nan nan nan nan nan nan nan nan nan nan nan nan nan nan nan nan nan nan nan nan nan nan nan nan
62 58 56 59 52 48 47 48 49 48 nan nan nan nan nan nan nan nan nan nan nan nan nan nan nan nan nan nan nan nan nan nan nan nan nan nan nan nan nan nan nan nan nan nan nan
nan 52 56 63 62 53 50 50 52 50 50 nan nan nan nan nan nan nan nan nan nan nan nan nan nan nan nan nan nan nan nan nan nan nan nan nan nan nan nan nan nan nan nan nan nan
nan nan 55 61 57 61 57 55 55 54 51 54 55 nan nan nan nan nan nan nan nan nan nan nan nan nan nan nan nan nan nan nan nan nan nan nan nan nan nan nan nan nan nan nan nan
nan nan nan 58 50 60 52 53 nan 53 56 56 57 nan nan nan nan nan nan nan nan nan nan nan nan nan nan nan nan nan nan nan nan nan nan nan nan nan nan nan nan nan nan nan nan
nan nan nan 54 51 53 56 56 50 52 57 58 61 nan nan nan nan nan nan nan nan nan nan nan nan nan nan nan nan nan nan nan nan nan nan nan nan nan nan nan nan nan nan nan nan
nan nan nan nan 54 56 60 64 50 53 55 62 nan nan nan nan nan nan nan nan nan nan nan nan nan nan nan nan nan nan nan nan nan nan nan nan nan nan nan nan nan nan nan nan nan
63 62 nan 56 nan 55 61 57 63 55 nan nan nan nan nan nan nan nan nan nan nan nan nan nan nan nan nan nan nan nan nan nan nan nan nan nan nan nan nan nan nan nan nan nan nan
57 nan nan nan 54 55 60 nan nan 65 nan nan nan nan nan nan nan nan nan nan nan nan nan nan nan nan nan nan nan nan nan nan nan nan nan nan nan nan nan nan nan nan nan nan nan
58 57 nan 57 53 55 nan nan nan nan nan nan nan nan nan nan nan nan nan nan nan nan nan nan nan nan nan nan nan nan nan nan nan nan nan nan nan nan nan nan nan nan nan nan nan
60 60 56 nan 50 49 nan nan nan nan nan nan nan nan nan nan nan nan nan nan nan nan nan nan nan nan nan nan nan nan nan nan nan nan nan nan nan nan nan nan nan nan nan nan nan
64 62 61 nan nan nan nan nan nan nan nan nan nan nan nan nan nan nan nan nan nan nan nan nan nan nan nan nan nan nan nan nan nan nan nan nan nan nan nan nan nan nan nan nan nan
71 66 66 nan nan nan nan nan nan nan nan nan nan nan nan nan nan nan nan nan nan nan nan nan nan nan nan nan nan nan nan nan nan nan nan nan nan nan nan nan nan nan nan nan nan
71 72 69 nan nan nan nan nan nan nan nan nan nan nan nan nan nan nan nan nan nan nan nan nan nan nan nan nan nan nan nan nan nan nan nan nan nan nan nan nan nan nan nan nan nan
36 65 76 nan nan nan nan nan nan nan nan nan nan nan nan nan nan nan nan nan nan nan nan nan nan nan nan nan nan nan nan nan nan nan nan nan nan nan nan nan nan nan nan nan nan
18 35 58 nan nan nan nan nan nan nan nan nan nan nan nan nan nan nan nan nan nan nan nan nan nan nan nan nan nan nan nan nan nan nan nan nan nan nan nan nan nan nan nan nan nan
32 nan nan nan nan nan nan nan nan nan nan nan nan nan nan nan nan nan nan nan nan nan nan nan nan nan nan nan nan nan nan nan nan nan nan nan nan nan nan nan nan nan nan nan nan
nan nan nan nan nan nan nan nan nan nan nan nan nan nan nan nan nan nan nan nan nan nan nan nan nan nan nan nan nan nan nan nan nan nan nan nan nan nan nan nan nan nan nan nan nan
nan nan nan nan nan nan nan nan nan nan nan nan nan nan nan nan nan nan nan nan nan nan nan nan nan nan nan nan nan nan nan nan nan nan nan nan nan nan nan nan nan nan nan nan nan
nan nan nan nan nan nan nan nan nan nan nan nan nan nan nan nan nan nan nan nan nan nan nan nan nan nan nan nan nan nan nan nan nan nan nan nan nan nan nan nan nan nan nan nan nan
nan nan nan nan nan nan nan nan nan nan nan nan nan nan nan nan nan nan nan nan nan nan nan nan nan nan nan nan nan nan nan nan nan nan nan nan nan nan nan nan nan nan nan nan nan
nan nan nan nan nan nan nan nan nan nan nan nan nan nan nan nan nan nan nan nan nan nan nan nan nan nan nan nan nan nan nan nan nan nan nan nan nan nan nan nan nan nan nan nan nan
nan nan nan nan nan nan nan nan nan nan nan nan nan nan nan nan nan nan nan nan nan nan nan nan nan nan nan nan nan nan nan nan nan nan nan nan nan nan nan nan nan nan nan nan nan
nan nan nan nan nan nan nan nan nan nan nan nan nan nan nan nan nan nan nan nan nan nan nan nan nan nan nan nan nan nan nan nan nan nan nan nan nan nan nan nan nan nan nan nan nan
nan nan nan nan nan nan nan nan nan nan nan nan nan nan nan nan nan nan nan nan nan nan nan nan nan nan nan nan nan nan nan nan nan nan nan nan nan nan nan nan nan nan nan nan nan
Wind_Direction
nan 239 nan 241 nan nan nan nan nan nan nan nan nan nan nan nan nan nan nan nan nan nan nan nan nan nan nan nan nan nan nan nan nan nan nan nan nan nan nan nan nan nan nan nan nan
240 232 241 238 242 242 242 nan nan nan nan nan nan nan nan nan nan nan nan nan nan nan nan nan nan nan nan nan nan nan nan nan nan nan nan nan nan nan nan nan nan nan nan nan nan
238 247 233 236 238 243 243 243 nan nan nan nan nan nan nan nan nan nan nan nan nan nan nan nan nan nan nan nan nan nan nan nan nan nan nan nan nan nan nan nan nan nan nan nan nan
234 240 244 234 236 242 241 244 243 242 nan nan nan nan nan nan nan nan nan nan nan nan nan nan nan nan nan nan nan nan nan nan nan nan nan nan nan nan nan nan nan nan nan nan nan
nan 231 235 244 235 240 243 242 245 242 241 nan nan nan nan nan nan nan nan nan nan nan nan nan nan nan nan nan nan nan nan nan nan nan nan nan nan nan nan nan nan nan nan nan nan
nan nan 233 238 244 242 239 243 244 243 239 241 240 nan nan nan nan nan nan nan nan nan nan nan nan nan nan nan nan nan nan nan nan nan nan nan nan nan nan nan nan nan nan nan nan
nan nan nan 235 235 236 233 235 nan 242 243 238 242 nan nan nan nan nan nan nan nan nan nan nan nan nan nan nan nan nan nan nan nan nan nan nan nan nan nan nan nan nan nan nan nan
nan nan nan 241 230 237 232 233 237 243 240 239 238 nan nan nan nan nan nan nan nan nan nan nan nan nan nan nan nan nan nan nan nan nan nan nan nan nan nan nan nan nan nan nan nan
nan nan nan nan 243 236 240 229 231 243 240 239 nan nan nan nan nan nan nan nan nan nan nan nan nan nan nan nan nan nan nan nan nan nan nan nan nan nan nan nan nan nan nan nan nan
234 232 nan 235 nan 249 240 233 224 230 nan nan nan nan nan nan nan nan nan nan nan nan nan nan nan nan nan nan nan nan nan nan nan nan nan nan nan nan nan nan nan nan nan nan nan
232 nan nan nan 240 248 248 nan nan 229 nan nan nan nan nan nan nan nan nan nan nan nan nan nan nan nan nan nan nan nan nan nan nan nan nan nan nan nan nan nan nan nan nan nan nan
230 232 nan 234 234 245 nan nan nan nan nan nan nan nan nan nan nan nan nan nan nan nan nan nan nan nan nan nan nan nan nan nan nan nan nan nan nan nan nan nan nan nan nan nan nan
227 229 232 nan 229 241 nan nan nan nan nan nan nan nan nan nan nan nan nan nan nan nan nan nan nan nan nan nan nan nan nan nan nan nan nan nan nan nan nan nan nan nan nan nan nan
227 225 225 nan nan nan nan nan nan nan nan nan nan nan nan nan nan nan nan nan nan nan nan nan nan nan nan nan nan nan nan nan nan nan nan nan nan nan nan nan nan nan nan nan nan
224 225 225 nan nan nan nan nan nan nan nan nan nan nan nan nan nan nan nan nan nan nan nan nan nan nan nan nan nan nan nan nan nan nan nan nan nan nan nan nan nan nan nan nan nan
225 223 224 nan nan nan nan nan nan nan nan nan nan nan nan nan nan nan nan nan nan nan nan nan nan nan nan nan nan nan nan nan nan nan nan nan nan nan nan nan nan nan nan nan nan
228 226 220 nan nan nan nan nan nan nan nan nan nan nan nan nan nan nan nan nan nan nan nan nan nan nan nan nan nan nan nan nan nan nan nan nan nan nan nan nan nan nan nan nan nan
230 216 214 nan nan nan nan nan nan nan nan nan nan nan nan nan nan nan nan nan nan nan nan nan nan nan nan nan nan nan nan nan nan nan nan nan nan nan nan nan nan nan nan nan nan
237 nan nan nan nan nan nan nan nan nan nan nan nan nan nan nan nan nan nan nan nan nan nan nan nan nan nan nan nan nan nan nan nan nan nan nan nan nan nan nan nan nan nan nan nan
nan nan nan nan nan nan nan nan nan nan nan nan nan nan nan nan nan nan nan nan nan nan nan nan nan nan nan nan nan nan nan nan nan nan nan nan nan nan nan nan nan nan nan nan nan
nan nan nan nan nan nan nan nan nan nan nan nan nan nan nan nan nan nan nan nan nan nan nan nan nan nan nan nan nan nan nan nan nan nan nan nan nan nan nan nan nan nan nan nan nan
nan nan nan nan nan nan nan nan nan nan nan nan nan nan nan nan nan nan nan nan nan nan nan nan nan nan nan nan nan nan nan nan nan nan nan nan nan nan nan nan nan nan nan nan nan
nan nan nan nan nan nan nan nan nan nan nan nan nan nan nan nan nan nan nan nan nan nan nan nan nan nan nan nan nan nan nan nan nan nan nan nan nan nan nan nan nan nan nan nan nan
nan nan nan nan nan nan nan nan nan nan nan nan nan nan nan nan nan nan nan nan nan nan nan nan nan nan nan nan nan nan nan nan nan nan nan nan nan nan nan nan nan nan nan nan nan
nan nan nan nan nan nan nan nan nan nan nan nan nan nan nan nan nan nan nan nan nan nan nan nan nan nan nan nan nan nan nan nan nan nan nan nan nan nan nan nan nan nan nan nan nan
nan nan nan nan nan nan nan nan nan nan nan nan nan nan nan nan nan nan nan nan nan nan nan nan nan nan nan nan nan nan nan nan nan nan nan nan nan nan nan nan nan nan nan nan nan
nan nan nan nan nan nan nan nan nan nan nan nan nan nan nan nan nan nan nan nan nan nan nan nan nan nan nan nan nan nan nan nan nan nan nan nan nan nan nan nan nan nan nan nan nan